CAPE
1 1 1 1 1 1 0 0 0 0 0 0 2 2 0 0 0 0 0 0 0 1 0 10 11 1 0 0 2 36 139 171 297 285 400 297 349 353 361 219 160 79 106 247 407
2 1 1 0 0 0 0 0 0 0 0 0 0 0 0 1 0 0 0 0 151 2 6 6 15 8 0 0 0 4 66 142 245 335 383 407 402 364 373 234 136 192 265 389 348
0 0 0 0 0 0 0 0 0 0 0 0 0 1 2 0 0 0 0 34 185 126 0 12 13 1 0 0 0 20 76 219 252 397 390 418 418 412 350 236 115 156 245 306 316
0 0 0 0 0 0 0 0 0 0 0 0 0 0 1 0 0 0 1331 333 738 0 11 27 6 0 0 0 11 45 161 401 530 491 412 417 363 356 305 244 125 161 162 227 252
0 0 0 0 0 0 0 0 0 0 0 0 0 0 0 0 0 0 534 657 0 0 26 25 6 0 1 9 139 216 319 381 449 517 420 387 345 288 219 105 110 156 207 193 202
0 0 0 0 0 0 0 0 0 0 0 0 0 0 0 0 0 0 0 0 0 10 51 9 4 0 36 33 162 250 402 521 509 432 418 404 270 204 145 92 243 200 198 157 153
0 0 0 0 0 0 0 0 0 0 0 0 0 0 0 0 0 0 0 0 0 9 57 15 0 20 55 255 254 339 380 470 530 511 470 410 296 194 174 119 93 200 172 130 168
0 0 0 0 0 0 0 0 0 0 0 0 0 0 0 0 0 0 0 0 0 39 19 0 2 57 192 276 386 431 404 393 440 432 414 350 172 247 245 168 174 100 147 87 87
0 0 0 0 0 0 0 0 0 0 0 0 0 0 0 0 0 0 0 0 0 96 0 0 0 12 45 123 202 336 199 240 129 252 164 250 132 333 299 252 227 173 119 60 122
0 0 0 0 0 0 0 0 0 0 0 0 0 0 0 0 0 0 0 0 0 148 0 4 7 8 22 68 139 116 68 49 12 73 227 58 37 320 329 309 248 219 185 80 103
0 0 0 0 0 0 0 0 0 0 0 0 0 0 0 0 0 0 0 0 5 178 0 4 22 22 32 36 41 52 41 22 15 214 217 113 33 59 308 279 250 281 191 217 94
0 0 0 0 0 0 0 0 0 0 0 0 0 0 0 0 0 0 0 0 32 226 12 5 23 36 42 47 58 70 64 53 57 98 137 17 16 24 103 320 223 174 163 156 151
0 0 0 0 0 0 0 0 0 0 0 0 0 0 0 0 0 0 0 0 47 245 113 37 32 93 42 57 102 92 49 55 49 58 118 76 4 96 71 50 279 343 205 163 150
0 0 0 0 0 0 0 0 0 0 0 0 0 0 0 0 0 0 0 0 27 237 271 139 125 130 40 76 103 85 41 35 42 24 1 24 5 15 43 143 99 163 425 243 280
0 0 0 0 0 0 0 0 0 0 0 0 0 0 0 0 0 0 0 0 3 114 188 101 49 38 39 61 94 72 54 42 38 4 0 0 22 12 0 153 137 167 139 463 325
0 0 0 0 0 0 0 0 0 0 0 0 0 0 0 0 0 0 0 0 0 24 73 38 4 1 33 51 93 89 77 41 43 0 0 0 1 0 0 38 50 204 675 515 379
0 0 0 0 0 0 0 0 0 0 0 0 0 0 0 0 0 0 0 0 0 0 1 3 5 23 8 46 74 63 44 42 19 15 0 0 0 5 33 78 0 26 403 560 505
0 0 0 0 0 0 0 0 0 0 0 0 0 0 0 0 0 0 0 0 0 0 0 0 0 0 0 43 50 11 22 40 6 0 0 0 0 0 381 207 11 29 5 692 574
0 0 0 0 0 0 0 0 0 0 0 0 0 0 0 0 0 0 0 0 0 0 0 0 0 0 0 19 25 2 8 10 0 7 0 0 29 375 422 140 89 170 621 735 784
0 0 0 0 0 0 0 0 0 0 0 0 0 0 0 0 0 0 0 0 0 0 0 0 0 0 0 0 9 26 0 28 3 0 0 133 341 182 230 243 363 584 753 776 746
0 0 0 0 0 0 0 0 0 0 0 0 0 0 0 0 0 0 0 0 0 0 0 0 0 0 0 0 0 41 7 8 8 0 0 1 107 183 225 273 529 735 821 955 901
0 0 0 0 0 0 0 0 0 0 0 0 0 0 0 0 0 0 0 0 0 0 0 0 0 0 0 0 0 21 6 4 5 0 0 51 13 0 200 287 841 844 902 1477 1479
0 0 0 0 0 0 0 0 0 0 0 0 0 0 0 0 0 0 0 0 0 0 0 0 0 0 0 0 0 0 2 0 0 0 0 2 0 0 99 360 545 1088 1336 1742 1747
0 0 0 0 0 0 0 0 0 0 0 0 0 0 0 0 0 0 0 0 0 0 60 0 0 0 0 0 0 0 0 0 0 2 0 0 0 0 23 375 579 797 1564 1773 1837
0 0 0 0 0 0 0 0 0 0 0 0 0 0 0 0 0 0 0 0 0 0 0 0 0 0 0 0 0 0 0 0 0 9 4 0 0 0 0 37 502 825 1494 1776 1825
0 0 0 0 0 0 0 0 0 0 0 0 0 0 0 0 0 3 3 0 0 0 0 0 0 0 0 0 0 0 0 2 15 22 19 16 0 4 0 33 343 957 1379 1663 1732
0 0 0 0 0 0 0 0 0 0 0 0 0 0 0 0 0 0 3 13 15 19 17 3 2 0 0 0 0 0 20 93 75 54 46 30 34 4 27 54 345 684 1207 1400 1648
CIN
-0 -0 -0 -0 -0 -0 -0 -0 -0 -0 -0 -0 -0 -0 -0 -0 -0 -0 -0 -0 -0 -156 -0 -17 -68 -12 -0 -0 -57 -49 -19 -26 -36 -50 -76 -76 -19 -29 -73 -49 -73 -83 -174 -174 -158
-0 -0 -0 -0 -0 -0 -0 -0 -0 -0 -0 -0 -0 -0 -0 -0 -0 -0 -0 -0 -513 -714 -13 -66 -45 -33 -0 -0 -0 -3 -46 -40 -45 -56 -100 -20 -26 -58 -62 -54 -79 -236 -229 -168 -180
-0 -0 -0 -0 -0 -0 -0 -0 -0 -0 -0 -0 -0 -0 -0 -0 -0 -0 -0 -799 -720 -284 -0 -56 -20 -3 -0 -0 -0 -12 -50 -44 -86 -70 -140 -54 -34 -71 -68 -72 -101 -270 -221 -200 -221
-0 -0 -0 -0 -0 -0 -0 -0 -0 -0 -0 -0 -0 -0 -0 -0 -0 -0 -578 -763 -683 -0 -48 -30 -2 -0 -0 -0 -38 -126 -123 -140 -113 -112 -127 -92 -94 -72 -91 -67 -102 -238 -178 -193 -214
-0 -0 -0 -0 -0 -0 -0 -0 -0 -0 -0 -0 -0 -0 -0 -0 -0 -0 -692 -674 -0 -0 -39 -30 -2 -0 -7 -33 -110 -93 -103 -106 -104 -81 -84 -72 -78 -104 -109 -105 -281 -254 -226 -151 -150
-0 -0 -0 -0 -0 -0 -0 -0 -0 -0 -0 -0 -0 -0 -0 -0 -0 -0 -0 -0 -0 -34 -84 -45 -90 -0 -129 -45 -78 -99 -107 -101 -109 -130 -90 -91 -124 -122 -138 -127 -264 -217 -233 -224 -140
-0 -0 -0 -0 -0 -0 -0 -0 -0 -0 -0 -0 -0 -0 -0 -0 -0 -0 -0 -0 -0 -32 -64 -67 -4 -86 -93 -122 -121 -105 -92 -94 -106 -120 -125 -113 -180 -127 -123 -136 -237 -215 -231 -237 -217
-0 -0 -0 -0 -0 -0 -0 -0 -0 -0 -0 -0 -0 -0 -0 -0 -0 -0 -0 -0 -0 -58 -76 -0 -9 -71 -68 -80 -83 -52 -58 -62 -90 -116 -185 -129 -150 -140 -157 -130 -72 -55 -229 -193 -322
-0 -0 -0 -0 -0 -0 -0 -0 -0 -0 -0 -0 -0 -0 -0 -0 -0 -0 -0 -0 -0 -48 -0 -0 -0 -45 -62 -42 -42 -48 -22 -25 -47 -92 -128 -133 -175 -154 -175 -144 -106 -70 -327 -292 -294
-0 -0 -0 -0 -0 -0 -0 -0 -0 -0 -0 -0 -0 -0 -0 -0 -0 -0 -0 -0 -0 -44 -0 -63 -56 -104 -83 -32 -10 -10 -24 -10 -71 -148 -149 -120 -94 -199 -185 -176 -191 -102 -80 -268 -304
-0 -0 -0 -0 -0 -0 -0 -0 -0 -0 -0 -0 -0 -0 -0 -0 -0 -0 -0 -0 -67 -30 -0 -87 -79 -83 -73 -39 -34 -17 -46 -31 -36 -204 -157 -157 -133 -258 -220 -195 -144 -326 -91 -308 -17
-0 -0 -0 -0 -0 -0 -0 -0 -0 -0 -0 -0 -0 -0 -0 -0 -0 -0 -0 -0 -137 -21 -82 -93 -80 -61 -81 -38 -36 -22 -25 -32 -45 -188 -200 -152 -173 -148 -253 -395 -394 -182 -145 -333 -216
-0 -0 -0 -0 -0 -0 -0 -0 -0 -0 -0 -0 -0 -0 -0 -0 -0 -0 -0 -0 -133 -15 -40 -52 -52 -31 -77 -38 -20 -18 -26 -32 -43 -49 -232 -186 -63 -228 -451 -222 -414 -381 -56 -34 -61
-0 -0 -0 -0 -0 -0 -0 -0 -0 -0 -0 -0 -0 -0 -0 -0 -0 -0 -0 -0 -146 -44 -24 -32 -22 -33 -38 -14 -9 -7 -30 -37 -44 -40 -20 -189 -77 -128 -419 -289 -184 -131 -366 -147 -32
-0 -0 -0 -0 -0 -0 -0 -0 -0 -0 -0 -0 -0 -0 -0 -0 -0 -0 -0 -0 -78 -75 -53 -77 -38 -61 -52 -14 -9 -28 -21 -43 -47 -90 -0 -0 -166 -147 -5 -271 -197 -105 -111 -34 -49
-0 -0 -0 -0 -0 -0 -0 -0 -0 -0 -0 -0 -0 -0 -0 -0 -0 -0 -0 -0 -0 -128 -81 -89 -96 -6 -83 -23 -17 -34 -37 -55 -37 -4 -0 -0 -94 -0 -0 -200 -119 -528 -173 -86 -88
-0 -0 -0 -0 -0 -0 -0 -0 -0 -0 -0 -0 -0 -0 -0 -0 -0 -0 -0 -0 -0 -0 -71 -162 -143 -93 -112 -49 -26 -18 -18 -28 -26 -29 -0 -0 -0 -92 -191 -216 -0 -217 -439 -110 -85
-0 -0 -0 -0 -0 -0 -0 -0 -0 -0 -0 -0 -0 -0 -0 -0 -0 -0 -0 -0 -0 -0 -0 -0 -0 -0 -0 -65 -21 -31 -5 -16 -14 -10 -0 -0 -0 -0 -136 -290 -132 -169 -130 -117 -87
-0 -0 -0 -0 -0 -0 -0 -0 -0 -0 -0 -0 -0 -0 -0 -0 -0 -0 -0 -0 -0 -0 -0 -0 -0 -0 -0 -52 -18 -3 -7 -13 -7 -16 -0 -0 -105 -118 -113 -148 -179 -160 -101 -91 -90
-0 -0 -0 -0 -0 -0 -0 -0 -0 -0 -0 -0 -0 -0 -0 -0 -0 -0 -0 -0 -0 -0 -0 -0 -0 -0 -0 -0 -13 -9 -0 -6 -2 -0 -0 -47 -92 -90 -145 -152 -202 -206 -118 -110 -98
-0 -0 -0 -0 -0 -0 -0 -0 -0 -0 -0 -0 -0 -0 -0 -0 -0 -0 -0 -0 -0 -0 -0 -0 -0 -0 -0 -0 -0 -12 -2 -2 -6 -0 -0 -41 -94 -134 -91 -147 -273 -215 -161 -359 -324
-0 -0 -0 -0 -0 -0 -0 -0 -0 -0 -0 -0 -0 -0 -0 -0 -0 -0 -0 -0 -0 -0 -0 -0 -0 -0 -0 -0 -0 -4 -6 -12 -2 -0 -0 -79 -133 -0 -166 -59 -295 -185 -368 -378 -332
-0 -0 -0 -0 -0 -0 -0 -0 -0 -0 -0 -0 -0 -0 -0 -0 -0 -0 -0 -0 -0 -0 -0 -0 -0 -0 -0 -0 -0 -0 -5 -0 -0 -0 -0 -39 -0 -0 -191 -141 -277 -274 -467 -333 -290
-0 -0 -0 -0 -0 -0 -0 -0 -0 -0 -0 -0 -0 -0 -0 -0 -0 -0 -0 -0 -0 -0 -275 -0 -0 -0 -0 -0 -0 -0 -1 -0 -0 -19 -0 -0 -0 -0 -119 -194 -612 -354 -455 -319 -239
-0 -0 -0 -0 -0 -0 -0 -0 -0 -0 -0 -0 -0 -0 -0 -0 -0 -0 -0 -0 -0 -0 -0 -0 -0 -0 -0 -0 -0 -0 -0 -0 -0 -49 -22 -0 -0 -0 -0 -291 -270 -313 -492 -335 -252
-0 -0 -0 -0 -0 -0 -0 -0 -0 -0 -0 -0 -0 -0 -0 -0 -0 -71 -93 -0 -0 -0 -0 -0 -0 -0 -0 -0 -0 -0 -4 -41 -78 -46 -38 -26 -0 -14 -0 -841 -773 -363 -561 -363 -264
-0 -0 -0 -0 -0 -0 -0 -0 -0 -0 -0 -0 -0 -0 -0 -0 -0 -0 -84 -94 -82 -83 -83 -13 -7 -0 -0 -0 -0 -0 -228 -189 -141 -176 -74 -27 -14 -0 -6 -745 -266 -458 -583 -411 -269
Wind_Speed
nan nan nan nan nan nan nan nan nan nan nan nan nan nan nan nan nan nan nan nan nan nan nan nan nan nan nan nan nan nan 12 19 23 28 22 24 21 24 18 24 20 nan 16 14 17
nan nan nan nan nan nan nan nan nan nan nan nan nan nan nan nan nan nan nan nan 6 nan nan nan nan nan nan nan nan nan nan 21 23 23 27 24 27 23 20 22 22 15 20 23 19
nan nan nan nan nan nan nan nan nan nan nan nan nan nan nan nan nan nan nan nan 10 4 nan nan nan nan nan nan nan nan nan 24 17 20 24 25 24 21 28 24 28 32 25 20 20
nan nan nan nan nan nan nan nan nan nan nan nan nan nan nan nan nan nan 14 15 14 nan nan nan nan nan nan nan nan nan 11 17 21 21 24 29 19 21 22 30 30 33 31 21 19
nan nan nan nan nan nan nan nan nan nan nan nan nan nan nan nan nan nan 13 15 nan nan nan nan nan nan nan nan 5 3 12 16 20 18 21 19 21 22 19 22 27 30 30 15 7
nan nan nan nan nan nan nan nan nan nan nan nan nan nan nan nan nan nan nan nan nan nan nan nan nan nan nan nan 4 2 7 15 12 14 21 19 18 22 18 nan 34 36 39 25 19
nan nan nan nan nan nan nan nan nan nan nan nan nan nan nan nan nan nan nan nan nan nan nan nan nan nan nan 6 4 4 3 10 9 6 19 14 9 16 27 24 nan 33 41 31 28
nan nan nan nan nan nan nan nan nan nan nan nan nan nan nan nan nan nan nan nan nan nan nan nan nan nan 12 4 5 3 3 7 12 12 13 13 20 18 24 32 32 38 37 nan nan
nan nan nan nan nan nan nan nan nan nan nan nan nan nan nan nan nan nan nan nan nan nan nan nan nan nan nan 7 9 4 8 10 10 16 10 10 16 22 23 33 36 34 34 nan 28
nan nan nan nan nan nan nan nan nan nan nan nan nan nan nan nan nan nan nan nan nan 12 nan nan nan nan nan nan 2 5 nan nan nan nan 12 nan nan 20 21 31 34 35 34 nan 34
nan nan nan nan nan nan nan nan nan nan nan nan nan nan nan nan nan nan nan nan nan 17 nan nan nan nan nan nan nan nan nan nan nan 10 15 19 nan nan 21 23 29 29 31 31 nan
nan nan nan nan nan nan nan nan nan nan nan nan nan nan nan nan nan nan nan nan nan 11 nan nan nan nan nan nan nan nan nan nan nan nan 11 nan nan nan 21 29 33 33 33 33 29
nan nan nan nan nan nan nan nan nan nan nan nan nan nan nan nan nan nan nan nan nan 9 10 nan nan nan nan nan 9 nan nan nan nan nan 4 nan nan nan nan nan 25 29 33 30 34
nan nan nan nan nan nan nan nan nan nan nan nan nan nan nan nan nan nan nan nan nan 12 12 13 14 21 nan nan 14 nan nan nan nan nan nan nan nan nan nan 19 nan 28 31 33 36
nan nan nan nan nan nan nan nan nan nan nan nan nan nan nan nan nan nan nan nan nan 17 21 10 nan nan nan nan nan nan nan nan nan nan nan nan nan nan nan 11 18 24 30 31 33
nan nan nan nan nan nan nan nan nan nan nan nan nan nan nan nan nan nan nan nan nan nan nan nan nan nan nan nan nan nan nan nan nan nan nan nan nan nan nan nan nan 15 17 22 25
nan nan nan nan nan nan nan nan nan nan nan nan nan nan nan nan nan nan nan nan nan nan nan nan nan nan nan nan nan nan nan nan nan nan nan nan nan nan nan nan nan nan 22 19 23
nan nan nan nan nan nan nan nan nan nan nan nan nan nan nan nan nan nan nan nan nan nan nan nan nan nan nan nan nan nan nan nan nan nan nan nan nan nan 15 8 nan nan nan 15 19
nan nan nan nan nan nan nan nan nan nan nan nan nan nan nan nan nan nan nan nan nan nan nan nan nan nan nan nan nan nan nan nan nan nan nan nan nan 2 1 3 nan 18 28 15 14
nan nan nan nan nan nan nan nan nan nan nan nan nan nan nan nan nan nan nan nan nan nan nan nan nan nan nan nan nan nan nan nan nan nan nan 13 15 2 8 11 12 20 29 17 9
nan nan nan nan nan nan nan nan nan nan nan nan nan nan nan nan nan nan nan nan nan nan nan nan nan nan nan nan nan nan nan nan nan nan nan nan 13 5 14 16 20 20 20 19 16
nan nan nan nan nan nan nan nan nan nan nan nan nan nan nan nan nan nan nan nan nan nan nan nan nan nan nan nan nan nan nan nan nan nan nan nan nan nan 7 23 17 21 20 12 15
nan nan nan nan nan nan nan nan nan nan nan nan nan nan nan nan nan nan nan nan nan nan nan nan nan nan nan nan nan nan nan nan nan nan nan nan nan nan nan 16 17 18 18 18 19
nan nan nan nan nan nan nan nan nan nan nan nan nan nan nan nan nan nan nan nan nan nan nan nan nan nan nan nan nan nan nan nan nan nan nan nan nan nan nan 11 16 20 20 24 25
nan nan nan nan nan nan nan nan nan nan nan nan nan nan nan nan nan nan nan nan nan nan nan nan nan nan nan nan nan nan nan nan nan nan nan nan nan nan nan nan 16 21 24 27 31
nan nan nan nan nan nan nan nan nan nan nan nan nan nan nan nan nan nan nan nan nan nan nan nan nan nan nan nan nan nan nan nan nan nan nan nan nan nan nan nan 25 24 29 28 27
nan nan nan nan nan nan nan nan nan nan nan nan nan nan nan nan nan nan nan nan nan nan nan nan nan nan nan nan nan nan nan nan nan nan nan nan nan nan nan nan 22 21 24 21 18
Wind_Direction
nan nan nan nan nan nan nan nan nan nan nan nan nan nan nan nan nan nan nan nan nan nan nan nan nan nan nan nan nan nan 34 41 41 29 30 24 29 40 35 14 21 nan 345 331 328
nan nan nan nan nan nan nan nan nan nan nan nan nan nan nan nan nan nan nan nan 304 nan nan nan nan nan nan nan nan nan nan 34 40 36 34 17 9 18 19 11 7 335 316 323 332
nan nan nan nan nan nan nan nan nan nan nan nan nan nan nan nan nan nan nan nan 305 297 nan nan nan nan nan nan nan nan nan 25 32 24 7 2 9 25 6 12 11 359 334 341 342
nan nan nan nan nan nan nan nan nan nan nan nan nan nan nan nan nan nan 200 291 273 nan nan nan nan nan nan nan nan nan 47 32 33 359 357 358 6 17 31 26 6 357 348 346 352
nan nan nan nan nan nan nan nan nan nan nan nan nan nan nan nan nan nan 232 275 nan nan nan nan nan nan nan nan 138 90 62 59 25 354 1 10 2 5 28 1 360 341 357 11 348
nan nan nan nan nan nan nan nan nan nan nan nan nan nan nan nan nan nan nan nan nan nan nan nan nan nan nan nan 203 84 54 63 30 28 21 3 8 2 25 nan 353 356 1 23 11
nan nan nan nan nan nan nan nan nan nan nan nan nan nan nan nan nan nan nan nan nan nan nan nan nan nan nan 218 204 258 27 60 45 17 16 7 15 2 10 350 nan 9 10 16 12
nan nan nan nan nan nan nan nan nan nan nan nan nan nan nan nan nan nan nan nan nan nan nan nan nan nan 252 260 219 109 28 24 50 30 3 25 45 24 8 353 3 21 26 nan nan
nan nan nan nan nan nan nan nan nan nan nan nan nan nan nan nan nan nan nan nan nan nan nan nan nan nan nan 261 233 192 355 6 32 37 24 26 38 31 19 8 11 25 26 nan 25
nan nan nan nan nan nan nan nan nan nan nan nan nan nan nan nan nan nan nan nan nan 266 nan nan nan nan nan nan 294 356 nan nan nan nan 47 nan nan 17 13 3 14 24 21 nan 17
nan nan nan nan nan nan nan nan nan nan nan nan nan nan nan nan nan nan nan nan nan 243 nan nan nan nan nan nan nan nan nan nan nan 40 9 13 nan nan 1 9 25 27 23 21 nan
nan nan nan nan nan nan nan nan nan nan nan nan nan nan nan nan nan nan nan nan nan 262 nan nan nan nan nan nan nan nan nan nan nan nan 6 nan nan nan 11 22 23 22 23 17 16
nan nan nan nan nan nan nan nan nan nan nan nan nan nan nan nan nan nan nan nan nan 259 256 nan nan nan nan nan 209 nan nan nan nan nan 8 nan nan nan nan nan 33 26 21 12 10
nan nan nan nan nan nan nan nan nan nan nan nan nan nan nan nan nan nan nan nan nan 283 269 259 237 233 nan nan 245 nan nan nan nan nan nan nan nan nan nan 29 nan 31 25 19 8
nan nan nan nan nan nan nan nan nan nan nan nan nan nan nan nan nan nan nan nan nan 267 261 258 nan nan nan nan nan nan nan nan nan nan nan nan nan nan nan 42 22 27 27 14 9
nan nan nan nan nan nan nan nan nan nan nan nan nan nan nan nan nan nan nan nan nan nan nan nan nan nan nan nan nan nan nan nan nan nan nan nan nan nan nan nan nan 348 21 1 350
nan nan nan nan nan nan nan nan nan nan nan nan nan nan nan nan nan nan nan nan nan nan nan nan nan nan nan nan nan nan nan nan nan nan nan nan nan nan nan nan nan nan 14 6 352
nan nan nan nan nan nan nan nan nan nan nan nan nan nan nan nan nan nan nan nan nan nan nan nan nan nan nan nan nan nan nan nan nan nan nan nan nan nan 25 68 nan nan nan 333 340
nan nan nan nan nan nan nan nan nan nan nan nan nan nan nan nan nan nan nan nan nan nan nan nan nan nan nan nan nan nan nan nan nan nan nan nan nan 261 204 40 nan 18 354 324 336
nan nan nan nan nan nan nan nan nan nan nan nan nan nan nan nan nan nan nan nan nan nan nan nan nan nan nan nan nan nan nan nan nan nan nan 260 229 43 343 24 21 5 13 23 351
nan nan nan nan nan nan nan nan nan nan nan nan nan nan nan nan nan nan nan nan nan nan nan nan nan nan nan nan nan nan nan nan nan nan nan nan 243 318 344 342 8 18 358 9 10
nan nan nan nan nan nan nan nan nan nan nan nan nan nan nan nan nan nan nan nan nan nan nan nan nan nan nan nan nan nan nan nan nan nan nan nan nan nan 301 307 323 357 353 358 8
nan nan nan nan nan nan nan nan nan nan nan nan nan nan nan nan nan nan nan nan nan nan nan nan nan nan nan nan nan nan nan nan nan nan nan nan nan nan nan 304 324 341 342 319 323
nan nan nan nan nan nan nan nan nan nan nan nan nan nan nan nan nan nan nan nan nan nan nan nan nan nan nan nan nan nan nan nan nan nan nan nan nan nan nan 305 309 311 324 324 313
nan nan nan nan nan nan nan nan nan nan nan nan nan nan nan nan nan nan nan nan nan nan nan nan nan nan nan nan nan nan nan nan nan nan nan nan nan nan nan nan 313 305 312 311 324
nan nan nan nan nan nan nan nan nan nan nan nan nan nan nan nan nan nan nan nan nan nan nan nan nan nan nan nan nan nan nan nan nan nan nan nan nan nan nan nan 297 311 309 309 322
nan nan nan nan nan nan nan nan nan nan nan nan nan nan nan nan nan nan nan nan nan nan nan nan nan nan nan nan nan nan nan nan nan nan nan nan nan nan nan nan 311 304 314 317 315